Regional Weather Roundup
Issued by NWS Green Bay, WI

Home | Current Version | Previous Version | Text Only | Print | Product List | Glossary On
Versions: 1 2 3 4 5 6 7 8 9 10 11 12 13 14 15 16 17 18 19 20 21 22 23 24 25 26 27 28 29 30 31 32 33 34 35 36 37 38 39 40 41 42 43 44 45 46 47 48 49 50
000
ASUS43 KGRB 010911
RWRGRB

NORTH-CENTRAL AND NORTHEAST WISCONSIN REGIONAL WEATHER ROUNDUP
NATIONAL WEATHER SERVICE GREEN BAY WI
400 AM CDT TUE SEP 01 2015

WIZ005-009-010>012-018-019-011000-
NORTH CENTRAL WISCONSIN

CITY           SKY/WX    TMP DP  RH WIND       PRES   REMARKS
IRONWOOD       PTCLDY    73  70  88 SW8       29.90S
MANITOWISH WTR CLOUDY    68  68 100 S3        29.97F FOG
ARBOR VITAE    PTCLDY    67  66  95 S6        29.98S FOG
EAGLE RIVER    CLEAR     67  67 100 SW3       29.99S FOG
LAND O LAKES   CLOUDY    67  67  98 CALM      30.00S FOG
RHINELANDER    PTCLDY    69  67  93 SW6       30.00S FOG
PHILLIPS       MOCLDY    67  67 100 CALM      29.96F FOG
ANTIGO         CLEAR     65  65  99 SW6       30.01S FOG
TOMAHAWK       CLEAR     65  64  96 CALM      29.99S FOG
MERRILL          N/A     61  61 100 CALM      29.99S FOG
$$

WIZ013-073-011000-
NORTHEAST WISCONSIN

CITY           SKY/WX    TMP DP  RH WIND       PRES   REMARKS
IRON MOUNTAIN  CLEAR     64  63  96 SE5       29.98R FOG
MARINETTE      CLEAR     66  63  88 SW5       29.98S
OCONTO         CLOUDY    62  62 100 CALM      29.99S VSB 1/4
$$

WIZ017-030-035>037-045-011000-
CENTRAL WISCONSIN

CITY           SKY/WX    TMP DP  RH WIND       PRES   REMARKS
MEDFORD        MOCLDY    67  67 100 S5        29.98S FOG
WAUSAU         PTCLDY    67  66  97 S5        29.98S FOG
MOSINEE        MOCLDY    64  64 100 CALM      30.00S FOG
MARSHFIELD     MOCLDY    67  64  90 S5        29.98S FOG
WISC RAPIDS    MOCLDY    68  65  90 CALM      29.99S
STEVENS POINT  CLOUDY    63  62  96 CALM      29.99F
WAUPACA        CLEAR     64  64  97 CALM      29.99S FOG
SHAWANO          N/A     68  66  94 CALM      29.99S FOG
CLINTONVILLE   FOG       63  63 100 CALM      29.99S VSB 1/4
WAUTOMA        FOG       62  62 100 CALM      29.99F VSB 1/4
$$

WIZ038-039-048-051-011000-
FOX VALLEY

CITY           SKY/WX    TMP DP  RH WIND       PRES   REMARKS
NWS GREEN BAY  CLEAR     65  64  97 S3        30.00S FOG
APPLETON       CLEAR     64  64 100 SE3       29.99S FOG
OSHKOSH        CLEAR     67  65  93 S8        29.99F FOG
FOND DU LAC    CLEAR     67  65  93 S6        30.01S FOG
$$

WIZ022-050-052-011000-
EAST CENTRAL WISCONSIN

CITY           SKY/WX    TMP DP  RH WIND       PRES   REMARKS
EPHRAIM        FAIR      65  64  97 CALM      29.99S FOG
STURGEON BAY   CLEAR     66  63  88 SW5       30.02S
MANITOWOC      PTCLDY    54  53  97 MISG      30.02S FOG
SHEBOYGAN      FOG       62  60  93 S3        30.02S VSB 3/4
$$

LMZ563-521-522-541>543-011000-
LAKESHORE

STATION/POSITION TIME  TEMP    WIND        PRES    VSBY  WAVE
                       AIR SEA DIR/SP/G                  HT/PER
                 (UTC) (F)     (DEG/KT/KT) (MB)    (MI)  (FT/S)
SHEBOYGAN LKSHOR 0900   65     180/  5/  6 1016.5S
KEWAUNEE LKSHORE 0800   50     150/  4/  5 1015.2
NORTHPORT PIER   0800   65     170/  4/  7 1015.6S
N MID LAKE BUOY  0850   64 65  210/ 16/ 17 1015.5R         3/ 4
S GREEN BAY BUOY 0900   66 64  180/  6/  6 1016.9F
CHAMBERS ISLAND  0800   67     170/  4/  8 1015.6S
MENOMINEE LKSHOR 0800   67     190/  5/  7 1014.3
$$


USA.gov is the U.S. government's official web portal to all federal, state and local government web resources and services.